Time,TemperatureF,DewpointF,PressureIn,WindDirection,WindDirectionDegrees,WindSpeedMPH,WindSpeedGustMPH,Humidity,HourlyPrecipIn,Conditions,Clouds,dailyrainin,SolarRadiationWatts/m^2,SoftwareType,DateUTC
2013-02-02 00:03:00,5.1,2.1,30.11,South,172,0.0,4.0,87,0.00,,,0.00,0,WeatherHawk,2013-02-02 06:03:00,
2013-02-02 00:08:00,5.1,2.1,30.11,South,172,2.0,4.0,87,0.00,,,0.00,0,WeatherHawk,2013-02-02 06:08:00,
2013-02-02 00:14:00,5.1,2.1,30.11,SSE,161,2.0,3.0,87,0.00,,,0.00,0,WeatherHawk,2013-02-02 06:14:00,
2013-02-02 00:19:00,5.1,2.1,30.10,South,176,1.0,3.0,87,0.00,,,0.00,0,WeatherHawk,2013-02-02 06:19:00,
2013-02-02 00:24:00,5.2,2.2,30.09,South,172,0.0,3.0,87,0.00,,,0.00,1,WeatherHawk,2013-02-02 06:24:00,
2013-02-02 00:29:00,5.2,2.2,30.09,SSE,160,0.0,3.0,87,0.00,,,0.00,0,WeatherHawk,2013-02-02 06:29:00,
2013-02-02 00:34:00,5.2,2.2,30.09,SSE,165,0.0,3.0,87,0.00,,,0.00,0,WeatherHawk,2013-02-02 06:34:00,
2013-02-02 00:39:00,5.2,2.2,30.09,SSE,155,0.0,3.0,87,0.00,,,0.00,0,WeatherHawk,2013-02-02 06:39:00,
2013-02-02 00:44:00,5.2,2.2,30.09,SSE,154,0.0,3.0,87,0.00,,,0.00,0,WeatherHawk,2013-02-02 06:44:00,
2013-02-02 00:49:00,5.3,2.3,30.09,SSE,168,0.0,3.0,87,0.00,,,0.00,0,WeatherHawk,2013-02-02 06:49:00,
2013-02-02 00:54:00,5.3,2.3,30.08,SSE,167,0.0,3.0,87,0.00,,,0.00,0,WeatherHawk,2013-02-02 06:54:00,
2013-02-02 00:59:00,5.3,2.3,30.08,SSE,164,0.0,3.0,87,0.00,,,0.00,1,WeatherHawk,2013-02-02 06:59:00,
2013-02-02 01:04:00,5.4,2.3,30.08,SSE,160,1.0,2.0,87,0.00,,,0.00,0,WeatherHawk,2013-02-02 07:04:00,
2013-02-02 01:09:00,5.4,2.4,30.07,SSE,160,0.0,2.0,87,0.00,,,0.00,0,WeatherHawk,2013-02-02 07:09:00,
2013-02-02 01:14:00,5.4,2.4,30.07,SSE,160,0.0,3.0,87,0.00,,,0.00,0,WeatherHawk,2013-02-02 07:14:00,
2013-02-02 01:19:00,5.4,2.6,30.07,SSE,149,0.0,3.0,88,0.00,,,0.00,1,WeatherHawk,2013-02-02 07:19:00,
2013-02-02 01:24:00,5.5,2.5,30.07,SSE,149,0.0,2.0,87,0.00,,,0.00,0,WeatherHawk,2013-02-02 07:24:00,
2013-02-02 01:29:00,5.6,2.6,30.07,SSE,149,0.0,2.0,87,0.00,,,0.00,0,WeatherHawk,2013-02-02 07:29:00,
2013-02-02 01:35:00,5.5,2.5,30.08,SSE,149,0.0,0.0,87,0.00,,,0.00,0,WeatherHawk,2013-02-02 07:35:00,
2013-02-02 01:40:00,5.5,2.5,30.07,SSE,149,0.0,0.0,87,0.00,,,0.00,0,WeatherHawk,2013-02-02 07:40:00,
2013-02-02 01:45:00,5.6,2.6,30.07,SSE,149,0.0,0.0,87,0.00,,,0.00,0,WeatherHawk,2013-02-02 07:45:00,
2013-02-02 01:50:00,5.7,2.7,30.07,SSE,149,0.0,0.0,87,0.00,,,0.00,0,WeatherHawk,2013-02-02 07:50:00,
2013-02-02 01:55:00,5.7,2.7,30.07,SSE,149,0.0,0.0,87,0.00,,,0.00,1,WeatherHawk,2013-02-02 07:55:00,
2013-02-02 02:00:00,5.8,2.5,30.07,SSE,149,0.0,0.0,86,0.00,,,0.00,0,WeatherHawk,2013-02-02 08:00:00,
2013-02-02 02:05:00,5.8,2.5,30.07,ENE,75,0.0,0.0,86,0.00,,,0.00,0,WeatherHawk,2013-02-02 08:05:00,
2013-02-02 02:11:00,5.9,2.6,30.07,ENE,75,0.0,0.0,86,0.00,,,0.00,0,WeatherHawk,2013-02-02 08:11:00,
2013-02-02 02:16:00,5.8,2.6,30.06,ENE,74,0.0,0.0,86,0.00,,,0.00,0,WeatherHawk,2013-02-02 08:16:00,
2013-02-02 02:21:00,5.8,2.6,30.06,NE,36,0.0,0.0,86,0.00,,,0.00,0,WeatherHawk,2013-02-02 08:21:00,
2013-02-02 02:26:00,5.9,2.6,30.06,NNE,20,0.0,0.0,86,0.00,,,0.00,0,WeatherHawk,2013-02-02 08:26:00,
2013-02-02 02:31:00,5.9,2.9,30.06,NNE,24,0.0,0.0,87,0.00,,,0.00,0,WeatherHawk,2013-02-02 08:31:00,
2013-02-02 02:36:00,5.8,2.8,30.06,NNE,24,0.0,0.0,87,0.00,,,0.00,0,WeatherHawk,2013-02-02 08:36:00,
2013-02-02 02:41:00,5.9,2.8,30.06,NNE,24,0.0,1.0,87,0.00,,,0.00,0,WeatherHawk,2013-02-02 08:41:00,
2013-02-02 02:46:00,5.8,2.7,30.05,NNE,33,2.0,2.0,87,0.00,,,0.00,0,WeatherHawk,2013-02-02 08:46:00,
2013-02-02 02:51:00,5.7,2.7,30.06,NE,42,2.0,2.0,87,0.00,,,0.00,0,WeatherHawk,2013-02-02 08:51:00,
2013-02-02 02:56:00,5.7,2.5,30.05,NNE,13,1.0,1.0,86,0.00,,,0.00,0,WeatherHawk,2013-02-02 08:56:00,
2013-02-02 03:01:00,5.8,2.8,30.05,NNE,14,1.0,2.0,87,0.00,,,0.00,1,WeatherHawk,2013-02-02 09:01:00,
2013-02-02 03:07:00,5.9,2.9,30.06,NE,46,0.0,2.0,87,0.00,,,0.00,0,WeatherHawk,2013-02-02 09:07:00,
2013-02-02 03:12:00,5.8,2.8,30.05,NNE,18,0.0,3.0,87,0.00,,,0.00,0,WeatherHawk,2013-02-02 09:12:00,
2013-02-02 03:17:00,5.9,2.8,30.05,NNE,27,0.0,3.0,87,0.00,,,0.00,1,WeatherHawk,2013-02-02 09:17:00,
2013-02-02 03:22:00,5.8,2.8,30.05,NNE,22,0.0,2.0,87,0.00,,,0.00,0,WeatherHawk,2013-02-02 09:22:00,
2013-02-02 03:27:00,5.6,2.6,30.04,NNE,32,0.0,2.0,87,0.00,,,0.00,1,WeatherHawk,2013-02-02 09:27:00,
2013-02-02 03:33:00,5.6,2.6,30.04,NNE,19,0.0,2.0,87,0.00,,,0.00,0,WeatherHawk,2013-02-02 09:33:00,
2013-02-02 03:39:00,5.5,2.5,30.04,NNE,15,2.0,2.0,87,0.00,,,0.00,0,WeatherHawk,2013-02-02 09:39:00,
2013-02-02 03:44:00,5.5,2.5,30.04,NNE,14,2.0,3.0,87,0.00,,,0.00,0,WeatherHawk,2013-02-02 09:44:00,
2013-02-02 03:49:00,5.6,2.6,30.04,North,2,0.0,3.0,87,0.00,,,0.00,0,WeatherHawk,2013-02-02 09:49:00,
2013-02-02 03:54:00,5.5,2.5,30.05,NNE,14,3.0,3.0,87,0.00,,,0.00,0,WeatherHawk,2013-02-02 09:54:00,
2013-02-02 03:59:00,5.5,2.5,30.04,NNE,28,0.0,3.0,87,0.00,,,0.00,0,WeatherHawk,2013-02-02 09:59:00,
2013-02-02 04:04:00,5.5,2.5,30.04,NE,53,1.0,4.0,87,0.00,,,0.00,1,WeatherHawk,2013-02-02 10:04:00,
2013-02-02 04:09:00,5.5,2.5,30.03,NNE,31,2.0,4.0,87,0.00,,,0.00,0,WeatherHawk,2013-02-02 10:09:00,
2013-02-02 04:14:00,5.6,2.5,30.03,NNE,31,1.0,4.0,87,0.00,,,0.00,0,WeatherHawk,2013-02-02 10:14:00,
2013-02-02 04:20:00,5.7,2.6,30.04,NNE,24,0.0,4.0,87,0.00,,,0.00,0,WeatherHawk,2013-02-02 10:20:00,
2013-02-02 04:24:00,5.6,2.6,30.04,NNE,24,2.0,4.0,87,0.00,,,0.00,0,WeatherHawk,2013-02-02 10:24:00,
2013-02-02 04:30:00,5.6,2.6,30.04,NE,35,0.0,4.0,87,0.00,,,0.00,0,WeatherHawk,2013-02-02 10:30:00,
2013-02-02 04:35:00,5.6,2.5,30.03,NE,36,0.0,3.0,87,0.00,,,0.00,0,WeatherHawk,2013-02-02 10:35:00,
2013-02-02 04:40:00,5.5,2.5,30.04,NE,34,0.0,3.0,87,0.00,,,0.00,0,WeatherHawk,2013-02-02 10:40:00,
2013-02-02 04:45:00,5.6,2.6,30.04,NE,42,1.0,4.0,87,0.00,,,0.00,1,WeatherHawk,2013-02-02 10:45:00,
2013-02-02 04:50:00,5.5,2.5,30.03,NNE,26,4.0,4.0,87,0.00,,,0.00,0,WeatherHawk,2013-02-02 10:50:00,
2013-02-02 04:55:00,5.5,2.5,30.04,North,9,1.0,3.0,87,0.00,,,0.00,0,WeatherHawk,2013-02-02 10:55:00,
2013-02-02 05:00:00,5.5,2.4,30.03,NNE,19,2.0,3.0,87,0.00,,,0.00,0,WeatherHawk,2013-02-02 11:00:00,
2013-02-02 05:05:00,5.3,2.5,30.04,NNE,30,4.0,4.0,88,0.00,,,0.00,0,WeatherHawk,2013-02-02 11:05:00,
2013-02-02 05:10:00,5.4,2.6,30.04,North,7,0.0,4.0,88,0.00,,,0.00,0,WeatherHawk,2013-02-02 11:10:00,
2013-02-02 05:15:00,5.3,2.5,30.03,NNE,33,4.0,5.0,88,0.00,,,0.00,0,WeatherHawk,2013-02-02 11:15:00,
2013-02-02 05:20:00,5.3,2.5,30.04,North,6,4.0,5.0,88,0.00,,,0.00,0,WeatherHawk,2013-02-02 11:20:00,
2013-02-02 05:25:00,5.3,2.5,30.03,NE,49,3.0,4.0,88,0.00,,,0.00,0,WeatherHawk,2013-02-02 11:25:00,
2013-02-02 05:30:00,5.2,2.5,30.04,NNE,18,2.0,4.0,88,0.00,,,0.00,0,WeatherHawk,2013-02-02 11:30:00,
2013-02-02 05:35:00,5.1,2.4,30.04,NNE,22,3.0,5.0,88,0.00,,,0.00,0,WeatherHawk,2013-02-02 11:35:00,
2013-02-02 05:40:00,5.2,2.4,30.04,NE,36,3.0,5.0,88,0.00,,,0.00,1,WeatherHawk,2013-02-02 11:40:00,
2013-02-02 05:45:00,5.2,2.4,30.04,NNE,25,2.0,5.0,88,0.00,,,0.00,1,WeatherHawk,2013-02-02 11:45:00,
2013-02-02 05:50:00,5.1,2.4,30.03,NNE,14,2.0,5.0,88,0.00,,,0.00,0,WeatherHawk,2013-02-02 11:50:00,
2013-02-02 05:55:00,5.1,2.4,30.04,NNE,16,4.0,6.0,88,0.00,,,0.00,1,WeatherHawk,2013-02-02 11:55:00,
2013-02-02 06:00:00,5.1,2.1,30.04,North,8,3.0,6.0,87,0.00,,,0.00,1,WeatherHawk,2013-02-02 12:00:00,
2013-02-02 06:05:00,5.1,2.1,30.04,NNE,15,0.0,4.0,87,0.00,,,0.00,0,WeatherHawk,2013-02-02 12:05:00,
2013-02-02 06:10:00,5.1,2.1,30.05,North,0,1.0,4.0,87,0.00,,,0.00,0,WeatherHawk,2013-02-02 12:10:00,
2013-02-02 06:15:00,5.1,2.1,30.05,NE,37,0.0,5.0,87,0.00,,,0.00,0,WeatherHawk,2013-02-02 12:15:00,
2013-02-02 06:20:00,5.2,2.2,30.05,NNE,28,0.0,5.0,87,0.00,,,0.00,0,WeatherHawk,2013-02-02 12:20:00,
2013-02-02 06:25:00,5.2,2.2,30.05,NNE,29,3.0,4.0,87,0.00,,,0.00,0,WeatherHawk,2013-02-02 12:25:00,
2013-02-02 06:30:00,5.2,2.2,30.05,North,7,0.0,4.0,87,0.00,,,0.00,1,WeatherHawk,2013-02-02 12:30:00,
2013-02-02 06:35:00,5.3,2.3,30.06,North,3,1.0,3.0,87,0.00,,,0.00,0,WeatherHawk,2013-02-02 12:35:00,
2013-02-02 06:40:00,5.3,2.3,30.06,North,350,2.0,3.0,87,0.00,,,0.00,0,WeatherHawk,2013-02-02 12:40:00,
2013-02-02 06:45:00,5.2,2.0,30.06,North,5,3.0,4.0,86,0.00,,,0.00,0,WeatherHawk,2013-02-02 12:45:00,
2013-02-02 06:50:00,5.2,2.0,30.06,North,6,5.0,5.0,86,0.00,,,0.00,0,WeatherHawk,2013-02-02 12:50:00,
2013-02-02 06:55:00,5.2,2.0,30.06,North,11,4.0,5.0,86,0.00,,,0.00,0,WeatherHawk,2013-02-02 12:55:00,
2013-02-02 07:00:00,5.1,1.9,30.07,NNW,345,5.0,5.0,86,0.00,,,0.00,0,WeatherHawk,2013-02-02 13:00:00,
2013-02-02 07:05:00,5.2,1.9,30.07,North,6,2.0,6.0,86,0.00,,,0.00,1,WeatherHawk,2013-02-02 13:05:00,
2013-02-02 07:10:00,5.1,1.9,30.07,North,350,3.0,6.0,86,0.00,,,0.00,1,WeatherHawk,2013-02-02 13:10:00,
2013-02-02 07:15:00,5.0,1.8,30.07,NNE,13,4.0,6.0,86,0.00,,,0.00,3,WeatherHawk,2013-02-02 13:15:00,
2013-02-02 07:20:00,4.9,1.7,30.07,NNW,328,5.0,6.0,86,0.00,,,0.00,3,WeatherHawk,2013-02-02 13:20:00,
2013-02-02 07:25:00,4.9,1.4,30.08,North,350,3.0,5.0,85,0.00,,,0.00,1,WeatherHawk,2013-02-02 13:25:00,
2013-02-02 07:30:00,4.9,1.2,30.08,North,2,5.0,5.0,84,0.00,,,0.00,5,WeatherHawk,2013-02-02 13:30:00,
2013-02-02 07:35:00,4.9,0.9,30.08,North,349,2.0,7.0,83,0.00,,,0.00,6,WeatherHawk,2013-02-02 13:35:00,
2013-02-02 07:40:00,4.9,0.6,30.08,North,350,5.0,7.0,82,0.00,,,0.00,9,WeatherHawk,2013-02-02 13:40:00,
2013-02-02 07:45:00,4.8,0.3,30.08,North,2,5.0,7.0,81,0.00,,,0.00,13,WeatherHawk,2013-02-02 13:45:00,
2013-02-02 07:50:00,4.9,0.4,30.09,North,7,7.0,7.0,81,0.00,,,0.00,20,WeatherHawk,2013-02-02 13:50:00,
2013-02-02 07:55:00,4.9,0.1,30.09,North,8,5.0,7.0,80,0.00,,,0.00,30,WeatherHawk,2013-02-02 13:55:00,
2013-02-02 08:00:00,5.0,-0.1,30.09,North,351,5.0,-999.0,79,0.00,,,0.00,37,WeatherHawk,2013-02-02 14:00:00,
2013-02-02 08:05:00,4.9,-0.4,30.09,North,1,5.0,7.0,78,0.00,,,0.00,29,WeatherHawk,2013-02-02 14:05:00,
2013-02-02 08:10:00,5.1,-0.3,30.09,NE,35,3.0,7.0,78,0.00,,,0.00,41,WeatherHawk,2013-02-02 14:10:00,
2013-02-02 08:15:00,5.1,-0.2,30.09,North,11,4.0,7.0,78,0.00,,,0.00,59,WeatherHawk,2013-02-02 14:15:00,
2013-02-02 08:20:00,5.0,-0.6,30.09,North,6,5.0,7.0,77,0.00,,,0.00,80,WeatherHawk,2013-02-02 14:20:00,
2013-02-02 08:25:00,5.1,-0.7,30.09,NNW,343,5.0,7.0,76,0.00,,,0.00,90,WeatherHawk,2013-02-02 14:25:00,
2013-02-02 08:30:00,5.3,-0.9,30.10,NNW,347,5.0,7.0,75,0.00,,,0.00,93,WeatherHawk,2013-02-02 14:30:00,
2013-02-02 08:35:00,5.3,-0.9,30.10,NNE,25,4.0,6.0,75,0.00,,,0.00,100,WeatherHawk,2013-02-02 14:35:00,
2013-02-02 08:40:00,5.2,-1.3,30.10,NNW,336,7.0,7.0,74,0.00,,,0.00,112,WeatherHawk,2013-02-02 14:40:00,
2013-02-02 08:45:00,5.2,-1.2,30.10,North,8,5.0,8.0,74,0.00,,,0.00,113,WeatherHawk,2013-02-02 14:45:00,
2013-02-02 08:50:00,5.2,-1.5,30.10,NNW,346,4.0,8.0,73,0.00,,,0.00,113,WeatherHawk,2013-02-02 14:50:00,
2013-02-02 08:55:00,5.4,-1.6,30.10,NNE,17,4.0,7.0,72,0.00,,,0.00,119,WeatherHawk,2013-02-02 14:55:00,
2013-02-02 09:00:00,5.3,-1.8,30.10,North,0,6.0,7.0,72,0.00,,,0.00,123,WeatherHawk,2013-02-02 15:00:00,
2013-02-02 09:05:00,5.2,-2.1,30.10,NNW,343,6.0,-999.0,71,0.00,,,0.00,129,WeatherHawk,2013-02-02 15:05:00,
2013-02-02 09:10:00,5.5,-2.2,30.10,NNW,335,4.0,9.0,70,0.00,,,0.00,157,WeatherHawk,2013-02-02 15:10:00,
2013-02-02 09:15:00,5.1,-2.8,30.09,North,9,4.0,-999.0,69,0.00,,,0.00,146,WeatherHawk,2013-02-02 15:15:00,
2013-02-02 09:20:00,5.4,-2.8,30.10,North,6,5.0,8.0,68,0.00,,,0.00,140,WeatherHawk,2013-02-02 15:20:00,
2013-02-02 09:25:00,5.5,-2.8,30.10,NNE,13,4.0,7.0,68,0.00,,,0.00,155,WeatherHawk,2013-02-02 15:25:00,
2013-02-02 09:30:00,5.6,-2.9,30.10,North,9,6.0,7.0,67,0.00,,,0.00,194,WeatherHawk,2013-02-02 15:30:00,
2013-02-02 09:35:00,5.6,-3.3,30.10,NNE,22,5.0,7.0,66,0.00,,,0.00,215,WeatherHawk,2013-02-02 15:35:00,
2013-02-02 09:40:00,6.4,-2.8,30.10,North,5,1.0,7.0,65,0.00,,,0.00,215,WeatherHawk,2013-02-02 15:40:00,
2013-02-02 09:45:00,6.5,-2.8,30.09,NNE,12,4.0,9.0,65,0.00,,,0.00,232,WeatherHawk,2013-02-02 15:45:00,
2013-02-02 09:50:00,6.2,-3.6,30.10,NNW,344,5.0,9.0,63,0.00,,,0.00,241,WeatherHawk,2013-02-02 15:50:00,
2013-02-02 09:55:00,6.3,-3.5,30.09,NNW,342,3.0,6.0,63,0.00,,,0.00,253,WeatherHawk,2013-02-02 15:55:00,
2013-02-02 10:00:00,6.0,-4.2,30.10,NNW,348,6.0,6.0,62,0.00,,,0.00,236,WeatherHawk,2013-02-02 16:00:00,
2013-02-02 10:05:00,6.5,-3.4,30.11,NNW,344,4.0,8.0,63,0.00,,,0.00,254,WeatherHawk,2013-02-02 16:05:00,
2013-02-02 10:10:00,6.1,-4.4,30.10,NNW,336,6.0,8.0,61,0.00,,,0.00,273,WeatherHawk,2013-02-02 16:10:00,
2013-02-02 10:15:00,6.8,-4.1,30.10,NNW,334,4.0,7.0,60,0.00,,,0.00,276,WeatherHawk,2013-02-02 16:15:00,
2013-02-02 10:20:00,6.4,-4.9,30.11,North,351,4.0,7.0,59,0.00,,,0.00,238,WeatherHawk,2013-02-02 16:20:00,
2013-02-02 10:25:00,6.3,-5.0,30.10,NNW,336,4.0,7.0,59,0.00,,,0.00,238,WeatherHawk,2013-02-02 16:25:00,
2013-02-02 10:30:00,6.3,-4.6,30.11,NNE,24,4.0,7.0,60,0.00,,,0.00,254,WeatherHawk,2013-02-02 16:30:00,
2013-02-02 10:35:00,6.8,-4.5,30.11,NNW,344,4.0,8.0,59,0.00,,,0.00,320,WeatherHawk,2013-02-02 16:35:00,
2013-02-02 10:40:00,7.1,-4.2,30.11,NNW,346,4.0,8.0,59,0.00,,,0.00,247,WeatherHawk,2013-02-02 16:40:00,
2013-02-02 10:45:00,8.0,-4.4,30.11,NNW,345,5.0,7.0,56,0.00,,,0.00,449,WeatherHawk,2013-02-02 16:45:00,
2013-02-02 10:50:00,8.5,-4.3,30.11,NNW,332,3.0,7.0,55,0.00,,,0.00,422,WeatherHawk,2013-02-02 16:50:00,
2013-02-02 10:55:00,9.3,-4.0,30.10,NNW,335,2.0,9.0,54,0.00,,,0.00,443,WeatherHawk,2013-02-02 16:55:00,
2013-02-02 11:00:00,9.1,-4.5,30.11,NNW,337,4.0,9.0,53,0.00,,,0.00,485,WeatherHawk,2013-02-02 17:00:00,
2013-02-02 11:05:00,8.7,-5.3,30.10,North,7,6.0,7.0,52,0.00,,,0.00,464,WeatherHawk,2013-02-02 17:05:00,
2013-02-02 11:10:00,8.1,-5.0,30.10,NNW,337,4.0,7.0,54,0.00,,,0.00,459,WeatherHawk,2013-02-02 17:10:00,
2013-02-02 11:15:00,7.8,-5.3,30.11,NNW,338,5.0,7.0,54,0.00,,,0.00,410,WeatherHawk,2013-02-02 17:15:00,
2013-02-02 11:20:00,8.8,-4.4,30.11,NNW,345,2.0,7.0,54,0.00,,,0.00,481,WeatherHawk,2013-02-02 17:20:00,
2013-02-02 11:25:00,8.1,-6.2,30.11,North,351,6.0,8.0,51,0.00,,,0.00,518,WeatherHawk,2013-02-02 17:25:00,
2013-02-02 11:30:00,8.0,-6.3,30.11,NW,313,7.0,8.0,51,0.00,,,0.00,461,WeatherHawk,2013-02-02 17:30:00,
2013-02-02 11:35:00,7.9,-5.6,30.10,NNW,338,8.0,-999.0,53,0.00,,,0.00,457,WeatherHawk,2013-02-02 17:35:00,
2013-02-02 11:40:00,7.9,-5.6,30.11,NNW,329,10.0,10.0,53,0.00,,,0.00,521,WeatherHawk,2013-02-02 17:40:00,
2013-02-02 11:45:00,8.3,-5.2,30.10,NNW,345,7.0,8.0,53,0.00,,,0.00,540,WeatherHawk,2013-02-02 17:45:00,
2013-02-02 11:50:00,9.1,-4.6,30.10,NNW,344,3.0,8.0,53,0.00,,,0.00,512,WeatherHawk,2013-02-02 17:50:00,
2013-02-02 11:55:00,8.6,-5.8,30.10,North,0,6.0,10.0,51,0.00,,,0.00,506,WeatherHawk,2013-02-02 17:55:00,
2013-02-02 12:00:00,8.9,-5.5,30.10,North,9,6.0,10.0,51,0.00,,,0.00,537,WeatherHawk,2013-02-02 18:00:00,
2013-02-02 12:05:00,8.7,-5.6,30.10,North,351,5.0,9.0,51,0.00,,,0.00,528,WeatherHawk,2013-02-02 18:05:00,
2013-02-02 12:10:00,8.7,-5.3,30.09,North,351,4.0,9.0,52,0.00,,,0.00,491,WeatherHawk,2013-02-02 18:10:00,
2013-02-02 12:15:00,8.8,-5.6,30.09,NNW,336,6.0,10.0,51,0.00,,,0.00,487,WeatherHawk,2013-02-02 18:15:00,
2013-02-02 12:20:00,8.3,-6.5,30.10,NNW,345,7.0,10.0,50,0.00,,,0.00,501,WeatherHawk,2013-02-02 18:20:00,
2013-02-02 12:25:00,9.1,-4.5,30.09,NNW,341,3.0,7.0,53,0.00,,,0.00,491,WeatherHawk,2013-02-02 18:25:00,
2013-02-02 12:30:00,8.3,-5.7,30.10,North,351,6.0,7.0,52,0.00,,,0.00,434,WeatherHawk,2013-02-02 18:30:00,
2013-02-02 12:35:00,8.7,-4.9,30.09,North,351,6.0,8.0,53,0.00,,,0.00,443,WeatherHawk,2013-02-02 18:35:00,
2013-02-02 12:40:00,8.2,-5.4,30.09,NNW,343,5.0,8.0,53,0.00,,,0.00,418,WeatherHawk,2013-02-02 18:40:00,
2013-02-02 12:45:00,8.4,-5.6,30.09,NNW,334,5.0,9.0,52,0.00,,,0.00,477,WeatherHawk,2013-02-02 18:45:00,
2013-02-02 12:50:00,9.0,-4.6,30.09,North,5,6.0,9.0,53,0.00,,,0.00,471,WeatherHawk,2013-02-02 18:50:00,
2013-02-02 12:55:00,9.9,-3.7,30.09,North,8,3.0,7.0,53,0.00,,,0.00,519,WeatherHawk,2013-02-02 18:55:00,
2013-02-02 13:00:00,9.5,-5.0,30.09,North,350,7.0,7.0,51,0.00,,,0.00,546,WeatherHawk,2013-02-02 19:00:00,
2013-02-02 13:05:00,10.0,-4.4,30.09,NNE,30,2.0,9.0,51,0.00,,,0.00,437,WeatherHawk,2013-02-02 19:05:00,
2013-02-02 13:10:00,9.6,-5.3,30.09,NNW,346,5.0,9.0,50,0.00,,,0.00,463,WeatherHawk,2013-02-02 19:10:00,
2013-02-02 13:15:00,9.1,-6.1,30.10,NNW,337,4.0,8.0,49,0.00,,,0.00,457,WeatherHawk,2013-02-02 19:15:00,
2013-02-02 13:20:00,9.4,-5.9,30.09,NNE,22,3.0,8.0,49,0.00,,,0.00,510,WeatherHawk,2013-02-02 19:20:00,
2013-02-02 13:25:00,10.7,-5.1,30.10,North,350,4.0,8.0,48,0.00,,,0.00,474,WeatherHawk,2013-02-02 19:25:00,
2013-02-02 13:30:00,10.2,-5.6,30.09,NW,325,4.0,0.0,48,0.00,,,0.00,517,WeatherHawk,2013-02-02 19:30:00,
2013-02-02 13:35:00,10.1,-6.1,30.08,NE,38,5.0,8.0,47,0.00,,,0.00,539,WeatherHawk,2013-02-02 19:35:00,
2013-02-02 13:41:00,10.1,-6.0,30.09,WNW,303,5.0,0.0,47,0.00,,,0.00,538,WeatherHawk,2013-02-02 19:41:00,
2013-02-02 13:46:00,9.4,-6.3,30.09,NW,326,6.0,7.0,48,0.00,,,0.00,478,WeatherHawk,2013-02-02 19:46:00,
2013-02-02 13:51:00,9.7,-5.6,30.09,NW,317,6.0,9.0,49,0.00,,,0.00,413,WeatherHawk,2013-02-02 19:51:00,
2013-02-02 13:56:00,9.1,-6.1,30.09,NW,315,8.0,9.0,49,0.00,,,0.00,340,WeatherHawk,2013-02-02 19:56:00,
2013-02-02 14:01:00,9.4,-5.4,30.09,NNW,344,4.0,8.0,50,0.00,,,0.00,374,WeatherHawk,2013-02-02 20:01:00,
2013-02-02 14:06:00,10.0,-4.9,30.10,North,351,5.0,8.0,50,0.00,,,0.00,354,WeatherHawk,2013-02-02 20:06:00,
2013-02-02 14:11:00,9.0,-5.8,30.09,WNW,288,8.0,10.0,50,0.00,,,0.00,300,WeatherHawk,2013-02-02 20:11:00,
2013-02-02 14:16:00,10.3,-3.8,30.09,North,349,2.0,10.0,52,0.00,,,0.00,345,WeatherHawk,2013-02-02 20:16:00,
2013-02-02 14:21:00,9.3,-5.6,30.10,NNW,348,4.0,8.0,50,0.00,,,0.00,293,WeatherHawk,2013-02-02 20:21:00,
2013-02-02 14:26:00,10.5,-3.6,30.09,NW,316,0.0,8.0,52,0.00,,,0.00,314,WeatherHawk,2013-02-02 20:26:00,
2013-02-02 14:31:00,9.6,-5.2,30.10,NNW,330,5.0,7.0,50,0.00,,,0.00,292,WeatherHawk,2013-02-02 20:31:00,
2013-02-02 14:36:00,9.2,-4.8,30.09,NNW,334,4.0,7.0,52,0.00,,,0.00,234,WeatherHawk,2013-02-02 20:36:00,
2013-02-02 14:41:00,9.5,-4.5,30.09,NNW,335,2.0,6.0,52,0.00,,,0.00,223,WeatherHawk,2013-02-02 20:41:00,
2013-02-02 14:47:00,9.1,-4.5,30.09,NNW,330,0.0,6.0,53,0.00,,,0.00,201,WeatherHawk,2013-02-02 20:47:00,
2013-02-02 14:52:00,8.7,-5.3,30.09,NNW,344,3.0,8.0,52,0.00,,,0.00,191,WeatherHawk,2013-02-02 20:52:00,
2013-02-02 14:57:00,9.0,-5.0,30.09,NNW,333,0.0,8.0,52,0.00,,,0.00,196,WeatherHawk,2013-02-02 20:57:00,
2013-02-02 15:02:00,8.7,-6.1,30.10,NNE,17,2.0,5.0,50,0.00,,,0.00,171,WeatherHawk,2013-02-02 21:02:00,
2013-02-02 15:07:00,8.6,-5.8,30.10,NNE,15,0.0,5.0,51,0.00,,,0.00,172,WeatherHawk,2013-02-02 21:07:00,
2013-02-02 15:12:00,9.3,-5.5,30.09,NNE,15,0.0,3.0,50,0.00,,,0.00,175,WeatherHawk,2013-02-02 21:12:00,
2013-02-02 15:17:00,9.2,-5.6,30.09,North,351,2.0,3.0,50,0.00,,,0.00,178,WeatherHawk,2013-02-02 21:17:00,
2013-02-02 15:22:00,8.6,-6.2,30.10,NNE,13,1.0,2.0,50,0.00,,,0.00,172,WeatherHawk,2013-02-02 21:22:00,
2013-02-02 15:27:00,9.5,-5.8,30.09,NNW,332,0.0,2.0,49,0.00,,,0.00,174,WeatherHawk,2013-02-02 21:27:00,
2013-02-02 15:32:00,8.6,-7.9,30.09,East,83,1.0,3.0,46,0.00,,,0.00,154,WeatherHawk,2013-02-02 21:32:00,
2013-02-02 15:37:00,8.8,-6.0,30.09,NNE,23,0.0,3.0,50,0.00,,,0.00,140,WeatherHawk,2013-02-02 21:37:00,
2013-02-02 15:42:00,8.7,-5.7,30.09,NE,41,0.0,2.0,51,0.00,,,0.00,136,WeatherHawk,2013-02-02 21:42:00,
2013-02-02 15:47:00,8.9,-5.5,30.08,North,4,0.0,2.0,51,0.00,,,0.00,120,WeatherHawk,2013-02-02 21:47:00,
2013-02-02 15:52:00,9.0,-5.8,30.09,North,4,0.0,3.0,50,0.00,,,0.00,112,WeatherHawk,2013-02-02 21:52:00,
2013-02-02 15:57:00,9.1,-5.8,30.09,North,4,0.0,3.0,50,0.00,,,0.00,108,WeatherHawk,2013-02-02 21:57:00,
2013-02-02 16:02:00,8.2,-6.6,30.09,North,4,0.0,2.0,50,0.00,,,0.00,88,WeatherHawk,2013-02-02 22:02:00,
2013-02-02 16:07:00,8.8,-4.8,30.09,NW,323,0.0,2.0,53,0.00,,,0.00,115,WeatherHawk,2013-02-02 22:07:00,
2013-02-02 16:12:00,9.3,-3.6,30.09,NW,310,0.0,0.0,55,0.00,,,0.00,79,WeatherHawk,2013-02-02 22:12:00,
2013-02-02 16:17:00,8.5,-4.0,30.08,West,266,0.0,0.0,56,0.00,,,0.00,77,WeatherHawk,2013-02-02 22:17:00,
2013-02-02 16:23:00,8.5,-3.6,30.09,West,266,0.0,0.0,57,0.00,,,0.00,75,WeatherHawk,2013-02-02 22:23:00,
2013-02-02 16:28:00,8.2,-3.5,30.08,West,266,0.0,0.0,58,0.00,,,0.00,51,WeatherHawk,2013-02-02 22:28:00,
2013-02-02 16:33:00,8.0,-2.6,30.08,West,266,0.0,0.0,61,0.00,,,0.00,39,WeatherHawk,2013-02-02 22:33:00,
2013-02-02 16:38:00,7.2,-2.7,30.09,WNW,289,0.0,0.0,63,0.00,,,0.00,31,WeatherHawk,2013-02-02 22:38:00,
2013-02-02 16:43:00,7.0,-2.6,30.09,WNW,289,0.0,0.0,64,0.00,,,0.00,28,WeatherHawk,2013-02-02 22:43:00,
2013-02-02 16:48:00,7.0,-1.6,30.09,WNW,289,0.0,0.0,67,0.00,,,0.00,22,WeatherHawk,2013-02-02 22:48:00,
2013-02-02 16:53:00,6.3,-1.9,30.09,WNW,288,0.0,0.0,68,0.00,,,0.00,18,WeatherHawk,2013-02-02 22:53:00,
2013-02-02 16:58:00,5.4,-2.5,30.09,WNW,288,0.0,0.0,69,0.00,,,0.00,13,WeatherHawk,2013-02-02 22:58:00,
2013-02-02 17:03:00,6.6,-0.5,30.09,WNW,288,0.0,1.0,72,0.00,,,0.00,8,WeatherHawk,2013-02-02 23:03:00,
2013-02-02 17:08:00,5.8,-1.3,30.10,WNW,287,0.0,1.0,72,0.00,,,0.00,5,WeatherHawk,2013-02-02 23:08:00,
2013-02-02 17:13:00,7.1,1.1,30.09,WNW,287,0.0,0.0,76,0.00,,,0.00,1,WeatherHawk,2013-02-02 23:13:00,
2013-02-02 17:18:00,5.5,-1.2,30.10,WNW,287,0.0,0.0,73,0.00,,,0.00,1,WeatherHawk,2013-02-02 23:18:00,
2013-02-02 17:24:00,5.8,-0.3,30.10,WNW,287,0.0,0.0,75,0.00,,,0.00,0,WeatherHawk,2013-02-02 23:24:00,
2013-02-02 17:29:00,5.3,0.0,30.10,WNW,287,0.0,0.0,78,0.00,,,0.00,0,WeatherHawk,2013-02-02 23:29:00,
2013-02-02 17:35:00,5.6,0.5,30.10,WNW,287,0.0,0.0,79,0.00,,,0.00,0,WeatherHawk,2013-02-02 23:35:00,
2013-02-02 17:40:00,6.2,1.1,30.10,SW,228,0.0,0.0,79,0.00,,,0.00,0,WeatherHawk,2013-02-02 23:40:00,
2013-02-02 17:46:00,6.3,0.6,30.10,SW,228,0.0,0.0,77,0.00,,,0.00,1,WeatherHawk,2013-02-02 23:46:00,
2013-02-02 17:51:00,6.1,0.4,30.10,SW,228,0.0,0.0,77,0.00,,,0.00,0,WeatherHawk,2013-02-02 23:51:00,
2013-02-02 17:56:00,6.1,0.2,30.11,SW,228,0.0,0.0,76,0.00,,,0.00,0,WeatherHawk,2013-02-02 23:56:00,
2013-02-02 18:01:00,6.8,1.4,30.10,SW,228,0.0,0.0,78,0.00,,,0.00,0,WeatherHawk,2013-02-03 00:01:00,
2013-02-02 18:07:00,4.9,-0.7,30.10,SW,228,0.0,0.0,77,0.00,,,0.00,1,WeatherHawk,2013-02-03 00:07:00,
2013-02-02 18:12:00,6.4,1.1,30.10,SW,228,0.0,0.0,78,0.00,,,0.00,0,WeatherHawk,2013-02-03 00:12:00,
2013-02-02 18:17:00,5.7,0.4,30.10,SW,228,0.0,0.0,78,0.00,,,0.00,0,WeatherHawk,2013-02-03 00:17:00,
2013-02-02 18:23:00,6.3,1.5,30.10,SW,228,0.0,0.0,80,0.00,,,0.00,0,WeatherHawk,2013-02-03 00:23:00,
2013-02-02 18:28:00,6.3,1.8,30.10,SW,228,0.0,0.0,81,0.00,,,0.00,1,WeatherHawk,2013-02-03 00:28:00,
2013-02-02 18:33:00,6.7,2.1,30.10,SW,228,0.0,0.0,81,0.00,,,0.00,0,WeatherHawk,2013-02-03 00:33:00,
2013-02-02 18:38:00,7.0,2.4,30.09,SW,228,0.0,0.0,81,0.00,,,0.00,0,WeatherHawk,2013-02-03 00:38:00,
2013-02-02 18:43:00,6.6,1.5,30.09,SW,228,0.0,0.0,79,0.00,,,0.00,0,WeatherHawk,2013-02-03 00:43:00,
2013-02-02 18:49:00,6.3,1.2,30.09,SW,228,0.0,0.0,79,0.00,,,0.00,0,WeatherHawk,2013-02-03 00:49:00,
2013-02-02 18:54:00,6.0,1.1,30.10,SW,228,0.0,0.0,80,0.00,,,0.00,0,WeatherHawk,2013-02-03 00:54:00,
2013-02-02 18:59:00,5.6,0.3,30.09,SW,228,0.0,0.0,78,0.00,,,0.00,0,WeatherHawk,2013-02-03 00:59:00,
2013-02-02 19:04:00,5.8,0.7,30.09,SW,228,0.0,0.0,79,0.00,,,0.00,0,WeatherHawk,2013-02-03 01:04:00,
2013-02-02 19:09:00,6.0,1.2,30.09,SW,228,0.0,0.0,80,0.00,,,0.00,0,WeatherHawk,2013-02-03 01:09:00,
2013-02-02 19:14:00,6.3,1.5,30.09,SW,228,0.0,0.0,80,0.00,,,0.00,0,WeatherHawk,2013-02-03 01:14:00,
2013-02-02 19:19:00,6.4,1.6,30.09,SW,228,0.0,0.0,80,0.00,,,0.00,0,WeatherHawk,2013-02-03 01:19:00,
2013-02-02 19:24:00,6.3,1.2,30.09,SW,228,0.0,0.0,79,0.00,,,0.00,0,WeatherHawk,2013-02-03 01:24:00,
2013-02-02 19:29:00,6.8,1.5,30.09,SSW,198,0.0,0.0,78,0.00,,,0.00,0,WeatherHawk,2013-02-03 01:29:00,
2013-02-02 19:34:00,6.6,1.5,30.08,SSW,198,0.0,0.0,79,0.00,,,0.00,0,WeatherHawk,2013-02-03 01:34:00,
2013-02-02 19:39:00,6.7,1.3,30.08,SSW,198,0.0,0.0,78,0.00,,,0.00,0,WeatherHawk,2013-02-03 01:39:00,
2013-02-02 19:44:00,6.4,1.0,30.08,SSW,198,0.0,0.0,78,0.00,,,0.00,0,WeatherHawk,2013-02-03 01:44:00,
2013-02-02 19:49:00,5.2,-0.7,30.08,SSW,198,0.0,0.0,76,0.00,,,0.00,0,WeatherHawk,2013-02-03 01:49:00,
2013-02-02 19:54:00,4.6,-0.4,30.08,SSW,198,0.0,0.0,79,0.00,,,0.00,0,WeatherHawk,2013-02-03 01:54:00,
2013-02-02 19:59:00,2.5,-2.0,30.08,SSW,198,0.0,0.0,81,0.00,,,0.00,0,WeatherHawk,2013-02-03 01:59:00,
2013-02-02 20:04:00,3.4,-0.6,30.09,SSW,198,0.0,0.0,83,0.00,,,0.00,0,WeatherHawk,2013-02-03 02:04:00,
2013-02-02 20:09:00,4.9,2.1,30.09,SSW,198,0.0,0.0,88,0.00,,,0.00,0,WeatherHawk,2013-02-03 02:09:00,
2013-02-02 20:14:00,2.9,0.6,30.08,SSW,198,0.0,0.0,90,0.00,,,0.00,0,WeatherHawk,2013-02-03 02:14:00,
2013-02-02 20:20:00,4.6,2.5,30.07,SSW,198,0.0,-999.0,91,0.00,,,0.00,0,WeatherHawk,2013-02-03 02:20:00,
2013-02-02 20:25:00,3.6,1.4,30.07,SSW,198,0.0,0.0,90,0.00,,,0.00,1,WeatherHawk,2013-02-03 02:25:00,
2013-02-02 20:30:00,2.5,0.2,30.07,SSW,198,0.0,0.0,90,0.00,,,0.00,0,WeatherHawk,2013-02-03 02:30:00,
2013-02-02 20:35:00,3.2,1.2,30.07,SSW,198,0.0,0.0,91,0.00,,,0.00,0,WeatherHawk,2013-02-03 02:35:00,
2013-02-02 20:40:00,2.4,1.3,30.07,SSW,198,0.0,-999.0,95,0.00,,,0.00,0,WeatherHawk,2013-02-03 02:40:00,
2013-02-02 20:45:00,1.6,0.3,30.06,SSW,198,0.0,0.0,94,0.00,,,0.00,0,WeatherHawk,2013-02-03 02:45:00,
2013-02-02 20:50:00,1.3,0.3,30.06,SSW,198,0.0,0.0,95,0.00,,,0.00,0,WeatherHawk,2013-02-03 02:50:00,
2013-02-02 20:55:00,2.1,1.7,30.06,SSW,198,0.0,0.0,98,0.00,,,0.00,0,WeatherHawk,2013-02-03 02:55:00,
2013-02-02 21:00:00,2.5,2.2,30.06,SSW,198,0.0,0.0,99,0.00,,,0.00,0,WeatherHawk,2013-02-03 03:00:00,
2013-02-02 21:05:00,1.3,0.9,30.06,SSW,198,0.0,0.0,98,0.00,,,0.00,0,WeatherHawk,2013-02-03 03:05:00,
2013-02-02 21:10:00,3.3,3.1,30.06,SE,136,1.0,0.0,99,0.00,,,0.00,0,WeatherHawk,2013-02-03 03:10:00,
2013-02-02 21:15:00,3.3,2.7,30.06,SE,138,1.0,0.0,97,0.00,,,0.00,0,WeatherHawk,2013-02-03 03:15:00,
2013-02-02 21:20:00,3.2,2.1,30.05,SE,146,0.0,0.0,95,0.00,,,0.00,0,WeatherHawk,2013-02-03 03:20:00,
2013-02-02 21:25:00,3.7,2.2,30.06,SSE,155,3.0,3.0,93,0.00,,,0.00,0,WeatherHawk,2013-02-03 03:25:00,
2013-02-02 21:30:00,3.7,1.7,30.05,SSE,165,2.0,2.0,91,0.00,,,0.00,0,WeatherHawk,2013-02-03 03:30:00,
2013-02-02 21:35:00,3.9,1.6,30.06,SE,142,0.0,2.0,90,0.00,,,0.00,0,WeatherHawk,2013-02-03 03:35:00,
2013-02-02 21:40:00,3.7,1.2,30.05,SSE,151,1.0,2.0,89,0.00,,,0.00,0,WeatherHawk,2013-02-03 03:40:00,
2013-02-02 21:45:00,3.9,1.2,30.05,SSE,151,0.0,3.0,88,0.00,,,0.00,0,WeatherHawk,2013-02-03 03:45:00,
2013-02-02 21:50:00,4.0,1.2,30.05,SE,145,0.0,3.0,88,0.00,,,0.00,0,WeatherHawk,2013-02-03 03:50:00,
2013-02-02 21:55:00,2.7,-0.5,30.05,SSE,159,0.0,2.0,86,0.00,,,0.00,0,WeatherHawk,2013-02-03 03:55:00,
2013-02-02 22:00:00,2.3,-0.9,30.05,SSE,159,0.0,2.0,86,0.00,,,0.00,0,WeatherHawk,2013-02-03 04:00:00,
2013-02-02 22:05:00,2.6,-0.4,30.05,SSE,159,0.0,2.0,87,0.00,,,0.00,0,WeatherHawk,2013-02-03 04:05:00,
2013-02-02 22:10:00,2.4,-0.3,30.05,SSE,159,0.0,2.0,88,0.00,,,0.00,0,WeatherHawk,2013-02-03 04:10:00,
2013-02-02 22:15:00,3.1,1.0,30.04,SSE,159,0.0,0.0,91,0.00,,,0.00,0,WeatherHawk,2013-02-03 04:15:00,
2013-02-02 22:20:00,2.8,0.6,30.05,SSE,159,0.0,0.0,90,0.00,,,0.00,1,WeatherHawk,2013-02-03 04:20:00,
2013-02-02 22:25:00,3.6,1.6,30.05,SSE,159,0.0,0.0,91,0.00,,,0.00,0,WeatherHawk,2013-02-03 04:25:00,
2013-02-02 22:30:00,4.2,2.2,30.04,SSE,159,0.0,-999.0,91,0.00,,,0.00,0,WeatherHawk,2013-02-03 04:30:00,
2013-02-02 22:35:00,4.5,2.5,30.04,SSE,159,0.0,0.0,91,0.00,,,0.00,1,WeatherHawk,2013-02-03 04:35:00,
2013-02-02 22:40:00,4.7,2.7,30.04,SSE,159,0.0,0.0,91,0.00,,,0.00,0,WeatherHawk,2013-02-03 04:40:00,
2013-02-02 22:45:00,5.3,3.0,30.03,SSE,159,0.0,0.0,90,0.00,,,0.00,0,WeatherHawk,2013-02-03 04:45:00,
2013-02-02 22:50:00,5.8,3.0,30.03,SSE,155,0.0,0.0,88,0.00,,,0.00,0,WeatherHawk,2013-02-03 04:50:00,
2013-02-02 22:55:00,5.8,2.0,30.02,SSE,156,0.0,0.0,84,0.00,,,0.00,0,WeatherHawk,2013-02-03 04:55:00,
2013-02-02 23:00:00,5.9,1.6,30.03,SSE,156,0.0,4.0,82,0.00,,,0.00,0,WeatherHawk,2013-02-03 05:00:00,
2013-02-02 23:01:00,5.9,1.6,30.02,SSE,156,0.0,4.0,82,0.00,,,0.00,0,WeatherHawk,2013-02-03 05:01:00,
2013-02-02 23:04:00,6.2,1.9,30.02,SSE,158,0.0,4.0,82,0.00,,,0.00,0,WeatherHawk,2013-02-03 05:04:00,
2013-02-02 23:09:00,6.7,2.4,30.02,South,178,2.0,4.0,82,0.00,,,0.00,0,WeatherHawk,2013-02-03 05:09:00,
2013-02-02 23:14:00,6.8,2.0,30.02,South,175,4.0,4.0,80,0.00,,,0.00,0,WeatherHawk,2013-02-03 05:14:00,
2013-02-02 23:19:00,6.9,1.8,30.02,South,171,2.0,2.0,79,0.00,,,0.00,0,WeatherHawk,2013-02-03 05:19:00,
2013-02-02 23:24:00,7.0,1.8,30.02,South,175,4.0,4.0,79,0.00,,,0.00,0,WeatherHawk,2013-02-03 05:24:00,
2013-02-02 23:29:00,6.6,1.3,30.02,SSE,155,2.0,4.0,78,0.00,,,0.00,0,WeatherHawk,2013-02-03 05:29:00,
2013-02-02 23:34:00,6.5,1.4,30.02,SSE,154,0.0,4.0,79,0.00,,,0.00,0,WeatherHawk,2013-02-03 05:34:00,
2013-02-02 23:39:00,6.6,1.8,30.02,SSE,154,0.0,4.0,80,0.00,,,0.00,0,WeatherHawk,2013-02-03 05:39:00,
2013-02-02 23:44:00,6.7,2.1,30.01,South,175,1.0,5.0,81,0.00,,,0.00,0,WeatherHawk,2013-02-03 05:44:00,
2013-02-02 23:49:00,6.8,2.8,30.01,SSE,158,0.0,5.0,83,0.00,,,0.00,0,WeatherHawk,2013-02-03 05:49:00,
2013-02-02 23:54:00,6.7,2.9,30.00,SSE,147,3.0,3.0,84,0.00,,,0.00,0,WeatherHawk,2013-02-03 05:54:00,
2013-02-02 23:59:00,6.8,3.3,30.00,SSE,163,2.0,2.0,85,0.00,,,0.00,0,WeatherHawk,2013-02-03 05:59:00,